sat.trackr.live / text

‹ back to catalog

STARLINK-31609

NORAD 59269 · 2024-050R

PAYLOAD ACTIVE UNKNOWN

§ Identity

Operator
Country
US
Launch date
2024-03-19
Launch site
AFWTR
Launch vehicle
Mass (kg)
RCS (m²)

Purposes: comms

External: N2YO · Heavens-Above · Gunter

§ Orbital elements

Epoch: 2026-05-24T19:53:14.374176Z

Period
94.11 min
Inclination
53.1592°
Eccentricity
0.0001034
Mean motion
15.30184667 rev/d
Perigee alt
474.6 km
Apogee alt
476.0 km
Semi-major
6,853.4 km
B*
5.7245e-5
RAAN
187.4862°
Arg perigee
90.8067°
Mean anomaly
269.3052°
Rev number
12,220

§ Raw data

STARLINK-316091 59269U 24050R   26144.82863859  .00001336  00000+0  57245-4 0  99972 59269  53.1592 187.4862 0001034  90.8067 269.3052 15.30184667122207

JSON: /api/v1/satellites/59269 · /tle

For live sub-satellite position, see the globe view (requires WebGL).

§ Visibility from observer

Set your observer location to see the next 7 days of passes ≥ 10°. The values pass through the URL so the page stays shareable.

No JS? Fill the form by hand. The geolocation button needs JavaScript.